sat.trackr.live / text

‹ back to catalog

BEIDOU-3 M17 (C36)

NORAD 43706 · 2018-093A

PAYLOAD ACTIVE UNKNOWN

§ Identity

Operator
Country
PRC
Launch date
2018-11-18
Launch site
XICLF
Launch vehicle
Mass (kg)
RCS (m²)

Purposes: nav

External: N2YO · Heavens-Above · Gunter

§ Orbital elements

Epoch: 2026-05-24T04:58:52.677696Z

Period
773.24 min
Inclination
54.1673°
Eccentricity
0.0009837
Mean motion
1.86228425 rev/d
Perigee alt
21,500.9 km
Apogee alt
21,555.8 km
Semi-major
27,906.4 km
B*
0.0000e+0
RAAN
183.1096°
Arg perigee
291.2944°
Mean anomaly
109.0036°
Rev number
5,109

§ Raw data

BEIDOU-3 M17 (C36)1 43706U 18093A   26144.20755414  .00000050  00000+0  00000+0 0  99992 43706  54.1673 183.1096 0009837 291.2944 109.0036  1.86228425 51096

JSON: /api/v1/satellites/43706 · /tle

For live sub-satellite position, see the globe view (requires WebGL).

§ Visibility from observer

Set your observer location to see the next 7 days of passes ≥ 10°. The values pass through the URL so the page stays shareable.

No JS? Fill the form by hand. The geolocation button needs JavaScript.